Year,Month,Day,Hour,Minute,Value (Times are PST for windspeed in km/hr)
2016,03,11,00,00,2.60
2016,03,11,00,01,2.70
2016,03,11,00,02,2.00
2016,03,11,00,03,0.70
2016,03,11,00,04,1.40
2016,03,11,00,05,2.90
2016,03,11,00,06,1.70
2016,03,11,00,07,1.10
2016,03,11,00,08,1.30
2016,03,11,00,09,0.70
2016,03,11,00,10,1.40
2016,03,11,00,11,1.00
2016,03,11,00,12,1.30
2016,03,11,00,13,1.60
2016,03,11,00,14,1.00
2016,03,11,00,15,2.00
2016,03,11,00,16,3.10
2016,03,11,00,17,4.00
2016,03,11,00,18,5.50
2016,03,11,00,19,5.70
2016,03,11,00,20,6.00
2016,03,11,00,21,5.70
2016,03,11,00,22,3.80
2016,03,11,00,23,3.80
2016,03,11,00,24,5.00
2016,03,11,00,25,4.50
2016,03,11,00,26,4.00
2016,03,11,00,27,4.70
2016,03,11,00,28,3.90
2016,03,11,00,29,2.10
2016,03,11,00,30,2.00
2016,03,11,00,31,3.90
2016,03,11,00,32,3.60
2016,03,11,00,33,4.00
2016,03,11,00,34,3.60
2016,03,11,00,35,2.60
2016,03,11,00,36,3.30
2016,03,11,00,37,4.20
2016,03,11,00,38,3.90
2016,03,11,00,39,5.50
2016,03,11,00,40,5.80
2016,03,11,00,41,6.50
2016,03,11,00,42,6.70
2016,03,11,00,43,6.00
2016,03,11,00,44,5.90
2016,03,11,00,45,7.10
2016,03,11,00,46,6.90
2016,03,11,00,47,7.10
2016,03,11,00,48,7.50
2016,03,11,00,49,6.00
2016,03,11,00,50,5.00
2016,03,11,00,51,5.20
2016,03,11,00,52,5.60
2016,03,11,00,53,6.30
2016,03,11,00,54,5.20
2016,03,11,00,55,5.60
2016,03,11,00,56,3.40
2016,03,11,00,57,3.20
2016,03,11,00,58,2.40
2016,03,11,00,59,2.90
2016,03,11,01,00,3.80
2016,03,11,01,01,4.70
2016,03,11,01,02,3.50
2016,03,11,01,03,5.20
2016,03,11,01,04,5.00
2016,03,11,01,05,2.80
2016,03,11,01,06,1.70
2016,03,11,01,07,3.40
2016,03,11,01,08,1.30
2016,03,11,01,09,1.80
2016,03,11,01,10,1.80
2016,03,11,01,11,2.10
2016,03,11,01,12,0.90
2016,03,11,01,13,1.90
2016,03,11,01,14,2.80
2016,03,11,01,15,4.20
2016,03,11,01,16,3.10
2016,03,11,01,17,2.30
2016,03,11,01,18,2.70
2016,03,11,01,19,5.30
2016,03,11,01,20,3.70
2016,03,11,01,21,2.60
2016,03,11,01,22,3.90
2016,03,11,01,23,5.80
2016,03,11,01,24,4.90
2016,03,11,01,25,2.20
2016,03,11,01,26,1.40
2016,03,11,01,27,1.00
2016,03,11,01,28,0.40
2016,03,11,01,29,1.50
2016,03,11,01,30,3.90
2016,03,11,01,31,2.70
2016,03,11,01,32,4.40
2016,03,11,01,33,3.40
2016,03,11,01,34,4.40
2016,03,11,01,35,2.30
2016,03,11,01,36,4.00
2016,03,11,01,37,3.50
2016,03,11,01,38,1.70
2016,03,11,01,39,4.10
2016,03,11,01,40,1.80
2016,03,11,01,41,1.60
2016,03,11,01,42,2.30
2016,03,11,01,43,2.00
2016,03,11,01,44,2.00
2016,03,11,01,45,2.50
2016,03,11,01,46,2.90
2016,03,11,01,47,4.80
2016,03,11,01,48,5.70
2016,03,11,01,49,4.80
2016,03,11,01,50,5.00
2016,03,11,01,51,4.70
2016,03,11,01,52,5.50
2016,03,11,01,53,4.80
2016,03,11,01,54,5.80
2016,03,11,01,55,5.40
2016,03,11,01,56,6.80
2016,03,11,01,57,6.00
2016,03,11,01,58,5.90
2016,03,11,01,59,6.40
2016,03,11,02,00,4.90
2016,03,11,02,01,4.00
2016,03,11,02,02,3.20
2016,03,11,02,03,4.80
2016,03,11,02,04,6.20
2016,03,11,02,05,5.30
2016,03,11,02,06,4.80
2016,03,11,02,07,5.80
2016,03,11,02,08,3.90
2016,03,11,02,09,2.30
2016,03,11,02,10,2.80
2016,03,11,02,11,4.50
2016,03,11,02,12,5.30
2016,03,11,02,13,3.80
2016,03,11,02,14,2.10
2016,03,11,02,15,4.60
2016,03,11,02,16,4.10
2016,03,11,02,17,3.30
2016,03,11,02,18,2.50
2016,03,11,02,19,3.80
2016,03,11,02,20,2.00
2016,03,11,02,21,1.70
2016,03,11,02,22,0.20
2016,03,11,02,23,1.60
2016,03,11,02,24,1.90
2016,03,11,02,25,2.10
2016,03,11,02,26,0.70
2016,03,11,02,27,0.90
2016,03,11,02,28,2.30
2016,03,11,02,29,0.20
2016,03,11,02,30,0.30
2016,03,11,02,31,0.00
2016,03,11,02,32,0.30
2016,03,11,02,33,0.40
2016,03,11,02,34,1.20
2016,03,11,02,35,2.10
2016,03,11,02,36,2.90
2016,03,11,02,37,3.70
2016,03,11,02,38,3.00
2016,03,11,02,39,3.80
2016,03,11,02,40,4.00
2016,03,11,02,41,4.50
2016,03,11,02,42,3.60
2016,03,11,02,43,1.60
2016,03,11,02,44,2.80
2016,03,11,02,45,2.00
2016,03,11,02,46,2.00
2016,03,11,02,47,0.80
2016,03,11,02,48,2.60
2016,03,11,02,49,1.80
2016,03,11,02,50,3.60
2016,03,11,02,51,2.60
2016,03,11,02,52,3.10
2016,03,11,02,53,2.70
2016,03,11,02,54,1.50
2016,03,11,02,55,3.60
2016,03,11,02,56,5.10
2016,03,11,02,57,6.10
2016,03,11,02,58,5.00
2016,03,11,02,59,3.10
2016,03,11,03,00,1.40
2016,03,11,03,01,0.90
2016,03,11,03,02,1.40
2016,03,11,03,03,1.50
2016,03,11,03,04,0.70
2016,03,11,03,05,0.90
2016,03,11,03,06,2.30
2016,03,11,03,07,2.50
2016,03,11,03,08,4.30
2016,03,11,03,09,4.00
2016,03,11,03,10,4.70
2016,03,11,03,11,3.40
2016,03,11,03,12,3.70
2016,03,11,03,13,3.80
2016,03,11,03,14,4.30
2016,03,11,03,15,5.50
2016,03,11,03,16,4.50
2016,03,11,03,17,5.20
2016,03,11,03,18,5.00
2016,03,11,03,19,4.20
2016,03,11,03,20,4.30
2016,03,11,03,21,3.90
2016,03,11,03,22,4.00
2016,03,11,03,23,4.40
2016,03,11,03,24,6.30
2016,03,11,03,25,5.70
2016,03,11,03,26,4.70
2016,03,11,03,27,3.40
2016,03,11,03,28,5.00
2016,03,11,03,29,6.10
2016,03,11,03,30,4.90
2016,03,11,03,31,3.80
2016,03,11,03,32,5.00
2016,03,11,03,33,4.80
2016,03,11,03,34,5.70
2016,03,11,03,35,6.00
2016,03,11,03,36,5.80
2016,03,11,03,37,6.40
2016,03,11,03,38,4.70
2016,03,11,03,39,5.50
2016,03,11,03,40,4.90
2016,03,11,03,41,5.70
2016,03,11,03,42,6.20
2016,03,11,03,43,5.90
2016,03,11,03,44,4.70
2016,03,11,03,45,6.40
2016,03,11,03,46,6.50
2016,03,11,03,47,7.80
2016,03,11,03,48,7.20
2016,03,11,03,49,6.70
2016,03,11,03,50,5.90
2016,03,11,03,51,5.90
2016,03,11,03,52,5.40
2016,03,11,03,53,4.10
2016,03,11,03,54,4.80
2016,03,11,03,55,6.00
2016,03,11,03,56,6.00
2016,03,11,03,57,4.80
2016,03,11,03,58,4.80
2016,03,11,03,59,5.20
2016,03,11,04,00,5.20
2016,03,11,04,01,5.80
2016,03,11,04,02,5.60
2016,03,11,04,03,4.50
2016,03,11,04,04,6.10
2016,03,11,04,05,4.90
2016,03,11,04,06,5.70
2016,03,11,04,07,7.00
2016,03,11,04,08,6.80
2016,03,11,04,09,9.00
2016,03,11,04,10,8.60
2016,03,11,04,11,9.70
2016,03,11,04,12,7.80
2016,03,11,04,13,7.50
2016,03,11,04,14,7.50
2016,03,11,04,15,7.40
2016,03,11,04,16,8.50
2016,03,11,04,17,6.40
2016,03,11,04,18,8.80
2016,03,11,04,19,9.00
2016,03,11,04,20,6.90
2016,03,11,04,21,8.10
2016,03,11,04,22,8.10
2016,03,11,04,23,8.60
2016,03,11,04,24,7.90
2016,03,11,04,25,6.30
2016,03,11,04,26,7.40
2016,03,11,04,27,7.80
2016,03,11,04,28,7.20
2016,03,11,04,29,8.10
2016,03,11,04,30,6.50
2016,03,11,04,31,6.40
2016,03,11,04,32,5.70
2016,03,11,04,33,3.40
2016,03,11,04,34,6.40
2016,03,11,04,35,6.80
2016,03,11,04,36,5.00
2016,03,11,04,37,4.80
2016,03,11,04,38,6.10
2016,03,11,04,39,5.00
2016,03,11,04,40,6.30
2016,03,11,04,41,6.40
2016,03,11,04,42,5.40
2016,03,11,04,43,5.00
2016,03,11,04,44,4.50
2016,03,11,04,45,3.80
2016,03,11,04,46,3.10
2016,03,11,04,47,3.20
2016,03,11,04,48,3.40
2016,03,11,04,49,4.10
2016,03,11,04,50,5.40
2016,03,11,04,51,5.00
2016,03,11,04,52,6.70
2016,03,11,04,53,5.50
2016,03,11,04,54,4.80
2016,03,11,04,55,5.90
2016,03,11,04,56,7.10
2016,03,11,04,57,7.30
2016,03,11,04,58,6.40
2016,03,11,04,59,7.50
2016,03,11,05,00,5.00
2016,03,11,05,01,2.90
2016,03,11,05,02,3.10
2016,03,11,05,03,4.90
2016,03,11,05,04,6.90
2016,03,11,05,05,8.80
2016,03,11,05,06,8.30
2016,03,11,05,07,8.60
2016,03,11,05,08,6.00
2016,03,11,05,09,2.20
2016,03,11,05,10,2.90
2016,03,11,05,11,2.30
2016,03,11,05,12,4.80
2016,03,11,05,13,8.60
2016,03,11,05,14,10.10
2016,03,11,05,15,10.00
2016,03,11,05,16,9.30
2016,03,11,05,17,6.30
2016,03,11,05,18,2.80
2016,03,11,05,19,1.00
2016,03,11,05,20,2.50
2016,03,11,05,21,3.20
2016,03,11,05,22,6.90
2016,03,11,05,23,8.70
2016,03,11,05,24,9.50
2016,03,11,05,25,12.30
2016,03,11,05,26,8.00
2016,03,11,05,27,2.60
2016,03,11,05,28,1.50
2016,03,11,05,29,4.40
2016,03,11,05,30,8.10
2016,03,11,05,31,12.10
2016,03,11,05,32,7.10
2016,03,11,05,33,8.50
2016,03,11,05,34,9.80
2016,03,11,05,35,7.60
2016,03,11,05,36,7.00
2016,03,11,05,37,5.00
2016,03,11,05,38,6.70
2016,03,11,05,39,9.70
2016,03,11,05,40,8.30
2016,03,11,05,41,8.50
2016,03,11,05,42,9.30
2016,03,11,05,43,10.00
2016,03,11,05,44,9.60
2016,03,11,05,45,11.30
2016,03,11,05,46,9.70
2016,03,11,05,47,7.10
2016,03,11,05,48,5.80
2016,03,11,05,49,11.00
2016,03,11,05,50,13.00
2016,03,11,05,51,12.60
2016,03,11,05,52,9.40
2016,03,11,05,53,6.70
2016,03,11,05,54,6.60
2016,03,11,05,55,7.50
2016,03,11,05,56,8.10
2016,03,11,05,57,7.10
2016,03,11,05,58,4.50
2016,03,11,05,59,4.60
2016,03,11,06,00,3.20
2016,03,11,06,01,5.60
2016,03,11,06,02,4.60
2016,03,11,06,03,6.10
2016,03,11,06,04,8.20
2016,03,11,06,05,3.80
2016,03,11,06,06,7.20
2016,03,11,06,07,4.60
2016,03,11,06,08,2.90
2016,03,11,06,09,4.10
2016,03,11,06,10,1.80
2016,03,11,06,11,1.90
2016,03,11,06,12,2.70
2016,03,11,06,13,3.50
2016,03,11,06,14,3.90
2016,03,11,06,15,5.40
2016,03,11,06,16,6.80
2016,03,11,06,17,5.20
2016,03,11,06,18,6.20
2016,03,11,06,19,7.20
2016,03,11,06,20,8.10
2016,03,11,06,21,7.60
2016,03,11,06,22,4.50
2016,03,11,06,23,4.00
2016,03,11,06,24,4.30
2016,03,11,06,25,3.60
2016,03,11,06,26,3.10
2016,03,11,06,27,4.70
2016,03,11,06,28,4.10
2016,03,11,06,29,1.90
2016,03,11,06,30,3.50
2016,03,11,06,31,4.50
2016,03,11,06,32,2.90
2016,03,11,06,33,4.60
2016,03,11,06,34,5.20
2016,03,11,06,35,3.80
2016,03,11,06,36,5.60
2016,03,11,06,37,4.80
2016,03,11,06,38,4.60
2016,03,11,06,39,7.30
2016,03,11,06,40,5.60
2016,03,11,06,41,4.10
2016,03,11,06,42,8.80
2016,03,11,06,43,8.90
2016,03,11,06,44,6.20
2016,03,11,06,45,5.90
2016,03,11,06,46,7.70
2016,03,11,06,47,6.40
2016,03,11,06,48,6.70
2016,03,11,06,49,5.40
2016,03,11,06,50,2.90
2016,03,11,06,51,7.80
2016,03,11,06,52,7.50
2016,03,11,06,53,6.00
2016,03,11,06,54,7.50
2016,03,11,06,55,8.20
2016,03,11,06,56,8.80
2016,03,11,06,57,10.30
2016,03,11,06,58,11.80
2016,03,11,06,59,5.90
2016,03,11,07,00,4.90
2016,03,11,07,01,8.00
2016,03,11,07,02,9.20
2016,03,11,07,03,6.00
2016,03,11,07,04,6.70
2016,03,11,07,05,7.00
2016,03,11,07,06,5.90
2016,03,11,07,07,4.80
2016,03,11,07,08,5.40
2016,03,11,07,09,7.30
2016,03,11,07,10,7.10
2016,03,11,07,11,7.70
2016,03,11,07,12,6.20
2016,03,11,07,13,6.40
2016,03,11,07,14,5.50
2016,03,11,07,15,6.10
2016,03,11,07,16,5.70
2016,03,11,07,17,4.50
2016,03,11,07,18,5.00
2016,03,11,07,19,3.50
2016,03,11,07,20,4.10
2016,03,11,07,21,6.00
2016,03,11,07,22,6.60
2016,03,11,07,23,5.90
2016,03,11,07,24,4.80
2016,03,11,07,25,5.00
2016,03,11,07,26,4.10
2016,03,11,07,27,5.30
2016,03,11,07,28,4.10
2016,03,11,07,29,4.60
2016,03,11,07,30,5.30
2016,03,11,07,31,4.90
2016,03,11,07,32,4.80
2016,03,11,07,33,3.90
2016,03,11,07,34,5.50
2016,03,11,07,35,5.60
2016,03,11,07,36,5.20
2016,03,11,07,37,4.70
2016,03,11,07,38,5.40
2016,03,11,07,39,4.60
2016,03,11,07,40,4.90
2016,03,11,07,41,4.80
2016,03,11,07,42,4.90
2016,03,11,07,43,4.40
2016,03,11,07,44,4.30
2016,03,11,07,45,5.00
2016,03,11,07,46,5.90
2016,03,11,07,47,5.50
2016,03,11,07,48,5.60
2016,03,11,07,49,5.30
2016,03,11,07,50,5.20
2016,03,11,07,51,4.80
2016,03,11,07,52,3.80
2016,03,11,07,53,5.00
2016,03,11,07,54,5.20
2016,03,11,07,55,3.80
2016,03,11,07,56,5.90
2016,03,11,07,57,4.50
2016,03,11,07,58,4.90
2016,03,11,07,59,5.50
2016,03,11,08,00,3.90
2016,03,11,08,01,3.20
2016,03,11,08,02,5.50
2016,03,11,08,03,4.60
2016,03,11,08,04,4.00
2016,03,11,08,05,5.40
2016,03,11,08,06,3.50
2016,03,11,08,07,3.10
2016,03,11,08,08,4.00
2016,03,11,08,09,5.20
2016,03,11,08,10,7.00
2016,03,11,08,11,5.00
2016,03,11,08,12,5.40
2016,03,11,08,13,4.90
2016,03,11,08,14,7.80
2016,03,11,08,15,5.20
2016,03,11,08,16,5.70
2016,03,11,08,17,4.60
2016,03,11,08,18,6.40
2016,03,11,08,19,6.20
2016,03,11,08,20,6.20
2016,03,11,08,21,4.50
2016,03,11,08,22,6.20
2016,03,11,08,23,6.00
2016,03,11,08,24,4.50
2016,03,11,08,25,4.20
2016,03,11,08,26,9.70
2016,03,11,08,27,6.90
2016,03,11,08,28,6.20
2016,03,11,08,29,2.70
2016,03,11,08,30,4.30
2016,03,11,08,31,8.10
2016,03,11,08,32,5.20
2016,03,11,08,33,3.50
2016,03,11,08,34,8.40
2016,03,11,08,35,6.00
2016,03,11,08,36,4.90
2016,03,11,08,37,3.90
2016,03,11,08,38,7.00
2016,03,11,08,39,7.00
2016,03,11,08,40,7.50
2016,03,11,08,41,6.40
2016,03,11,08,42,4.60
2016,03,11,08,43,5.40
2016,03,11,08,44,9.70
2016,03,11,08,45,8.10
2016,03,11,08,46,8.90
2016,03,11,08,47,6.20
2016,03,11,08,48,5.50
2016,03,11,08,49,8.70
2016,03,11,08,50,7.70
2016,03,11,08,51,6.20
2016,03,11,08,52,8.50
2016,03,11,08,53,7.60
2016,03,11,08,54,8.70
2016,03,11,08,55,7.20
2016,03,11,08,56,6.40
2016,03,11,08,57,5.70
2016,03,11,08,58,2.90
2016,03,11,08,59,6.60
2016,03,11,09,00,7.20
2016,03,11,09,01,6.60
2016,03,11,09,02,4.10
2016,03,11,09,03,4.40
2016,03,11,09,04,4.10
2016,03,11,09,05,6.40
2016,03,11,09,06,12.50
2016,03,11,09,07,7.00
2016,03,11,09,08,8.90
2016,03,11,09,09,4.70
2016,03,11,09,10,6.60
2016,03,11,09,11,7.20
2016,03,11,09,12,6.80
2016,03,11,09,13,7.00
2016,03,11,09,14,3.20
2016,03,11,09,15,4.80
2016,03,11,09,16,6.10
2016,03,11,09,17,11.60
2016,03,11,09,18,8.20
2016,03,11,09,19,5.70
2016,03,11,09,20,6.40
2016,03,11,09,21,10.10
2016,03,11,09,22,7.30
2016,03,11,09,23,6.00
2016,03,11,09,24,7.60
2016,03,11,09,25,6.20
2016,03,11,09,26,4.20
2016,03,11,09,27,5.30
2016,03,11,09,28,7.10
2016,03,11,09,29,9.10
2016,03,11,09,30,8.30
2016,03,11,09,31,8.90
2016,03,11,09,32,4.60
2016,03,11,09,33,6.70
2016,03,11,09,34,7.00
2016,03,11,09,35,5.10
2016,03,11,09,36,3.40
2016,03,11,09,37,7.80
2016,03,11,09,38,10.30
2016,03,11,09,39,8.10
2016,03,11,09,40,8.40
2016,03,11,09,41,8.00
2016,03,11,09,42,9.30
2016,03,11,09,43,7.10
2016,03,11,09,44,6.80
2016,03,11,09,45,6.50
2016,03,11,09,46,9.00
2016,03,11,09,47,8.60
2016,03,11,09,48,7.60
2016,03,11,09,49,4.10
2016,03,11,09,50,7.60
2016,03,11,09,51,9.00
2016,03,11,09,52,9.00
2016,03,11,09,53,7.40
2016,03,11,09,54,6.70
2016,03,11,09,55,3.60
2016,03,11,09,56,3.10
2016,03,11,09,57,5.40
2016,03,11,09,58,8.60
2016,03,11,09,59,5.80
2016,03,11,10,00,5.90
2016,03,11,10,01,9.50
2016,03,11,10,02,8.10
2016,03,11,10,03,6.20
2016,03,11,10,04,6.40
2016,03,11,10,05,9.20
2016,03,11,10,06,8.40
2016,03,11,10,07,4.80
2016,03,11,10,08,6.40
2016,03,11,10,09,6.90
2016,03,11,10,10,7.60
2016,03,11,10,11,4.60
2016,03,11,10,12,6.20
2016,03,11,10,13,6.70
2016,03,11,10,14,3.80
2016,03,11,10,15,3.30
2016,03,11,10,16,6.60
2016,03,11,10,17,5.70
2016,03,11,10,18,4.50
2016,03,11,10,19,7.60
2016,03,11,10,20,6.20
2016,03,11,10,21,3.80
2016,03,11,10,22,3.80
2016,03,11,10,23,5.00
2016,03,11,10,24,4.20
2016,03,11,10,25,5.50
2016,03,11,10,26,5.60
2016,03,11,10,27,8.40
2016,03,11,10,28,4.80
2016,03,11,10,29,7.10
2016,03,11,10,30,9.00
2016,03,11,10,31,9.50
2016,03,11,10,32,7.80
2016,03,11,10,33,11.50
2016,03,11,10,34,11.80
2016,03,11,10,35,11.70
2016,03,11,10,36,7.10
2016,03,11,10,37,6.90
2016,03,11,10,38,10.10
2016,03,11,10,39,12.10
2016,03,11,10,40,4.30
2016,03,11,10,41,4.80
2016,03,11,10,42,7.20
2016,03,11,10,43,12.30
2016,03,11,10,44,9.00
2016,03,11,10,45,7.10
2016,03,11,10,46,7.90
2016,03,11,10,47,8.30
2016,03,11,10,48,4.60
2016,03,11,10,49,3.80
2016,03,11,10,50,7.90
2016,03,11,10,51,3.40
2016,03,11,10,52,4.40
2016,03,11,10,53,4.50
2016,03,11,10,54,8.30
2016,03,11,10,55,6.60
2016,03,11,10,56,9.70
2016,03,11,10,57,10.20
2016,03,11,10,58,10.10
2016,03,11,10,59,7.80
2016,03,11,11,00,7.80
2016,03,11,11,01,12.60
2016,03,11,11,02,11.30
2016,03,11,11,03,10.00
2016,03,11,11,04,8.70
2016,03,11,11,05,12.80
2016,03,11,11,06,7.50
2016,03,11,11,07,11.80
2016,03,11,11,08,13.60
2016,03,11,11,09,10.70
2016,03,11,11,10,11.80
2016,03,11,11,11,9.70
2016,03,11,11,12,10.40
2016,03,11,11,13,9.20
2016,03,11,11,14,9.80
2016,03,11,11,15,13.60
2016,03,11,11,16,11.20
2016,03,11,11,17,12.70
2016,03,11,11,18,10.60
2016,03,11,11,19,9.20
2016,03,11,11,20,10.50
2016,03,11,11,21,11.00
2016,03,11,11,22,11.10
2016,03,11,11,23,7.10
2016,03,11,11,24,9.70
2016,03,11,11,25,10.30
2016,03,11,11,26,7.60
2016,03,11,11,27,9.70
2016,03,11,11,28,14.00
2016,03,11,11,29,11.30
2016,03,11,11,30,11.30
2016,03,11,11,31,9.70
2016,03,11,11,32,9.20
2016,03,11,11,33,9.60
2016,03,11,11,34,8.80
2016,03,11,11,35,8.70
2016,03,11,11,36,8.00
2016,03,11,11,37,11.60
2016,03,11,11,38,12.10
2016,03,11,11,39,15.30
2016,03,11,11,40,14.30
2016,03,11,11,41,12.60
2016,03,11,11,42,16.30
2016,03,11,11,43,8.50
2016,03,11,11,44,7.90
2016,03,11,11,45,14.80
2016,03,11,11,46,14.90
2016,03,11,11,47,13.70
2016,03,11,11,48,8.00
2016,03,11,11,49,14.60
2016,03,11,11,50,11.30
2016,03,11,11,51,13.80
2016,03,11,11,52,11.30
2016,03,11,11,53,7.90
2016,03,11,11,54,8.30
2016,03,11,11,55,10.20
2016,03,11,11,56,10.10
2016,03,11,11,57,10.60
2016,03,11,11,58,14.20
2016,03,11,11,59,12.30
2016,03,11,12,00,11.10
2016,03,11,12,01,13.60
2016,03,11,12,02,13.90
2016,03,11,12,03,13.80
2016,03,11,12,04,9.40
2016,03,11,12,05,12.70
2016,03,11,12,06,8.70
2016,03,11,12,07,11.00
2016,03,11,12,08,10.80
2016,03,11,12,09,12.10
2016,03,11,12,10,11.80
2016,03,11,12,11,9.20
2016,03,11,12,12,9.50
2016,03,11,12,13,14.30
2016,03,11,12,14,11.10
2016,03,11,12,15,10.10
2016,03,11,12,16,6.20
2016,03,11,12,17,6.90
2016,03,11,12,18,5.20
2016,03,11,12,19,7.00
2016,03,11,12,20,8.90
2016,03,11,12,21,8.00
2016,03,11,12,22,6.00
2016,03,11,12,23,8.10
2016,03,11,12,24,9.10
2016,03,11,12,25,8.10
2016,03,11,12,26,10.90
2016,03,11,12,27,7.80
2016,03,11,12,28,8.20
2016,03,11,12,29,8.80
2016,03,11,12,30,10.90
2016,03,11,12,31,7.90
2016,03,11,12,32,10.10
2016,03,11,12,33,9.40
2016,03,11,12,34,11.10
2016,03,11,12,35,10.80
2016,03,11,12,36,12.20
2016,03,11,12,37,12.30
2016,03,11,12,38,13.20
2016,03,11,12,39,13.20
2016,03,11,12,40,9.90
2016,03,11,12,41,11.50
2016,03,11,12,42,10.90
2016,03,11,12,43,12.30
2016,03,11,12,44,8.40
2016,03,11,12,45,7.90
2016,03,11,12,46,7.80
2016,03,11,12,47,8.60
2016,03,11,12,48,8.40
2016,03,11,12,49,6.30
2016,03,11,12,50,6.20
2016,03,11,12,51,6.60
2016,03,11,12,52,6.90
2016,03,11,12,53,6.10
2016,03,11,12,54,5.50
2016,03,11,12,55,8.10
2016,03,11,12,56,8.30
2016,03,11,12,57,6.50
2016,03,11,12,58,10.40
2016,03,11,12,59,8.10
2016,03,11,13,00,8.40
2016,03,11,13,01,8.90
2016,03,11,13,02,9.40
2016,03,11,13,03,7.10
2016,03,11,13,04,8.30
2016,03,11,13,05,10.60
2016,03,11,13,06,4.50
2016,03,11,13,07,9.50
2016,03,11,13,08,10.00
2016,03,11,13,09,10.70
2016,03,11,13,10,10.10
2016,03,11,13,11,8.50
2016,03,11,13,12,8.20
2016,03,11,13,13,7.10
2016,03,11,13,14,8.70
2016,03,11,13,15,12.00
2016,03,11,13,16,8.10
2016,03,11,13,17,9.90
2016,03,11,13,18,8.20
2016,03,11,13,19,6.80
2016,03,11,13,20,8.50
2016,03,11,13,21,7.40
2016,03,11,13,22,5.10
2016,03,11,13,23,10.20
2016,03,11,13,24,11.80
2016,03,11,13,25,8.50
2016,03,11,13,26,10.10
2016,03,11,13,27,10.00
2016,03,11,13,28,13.10
2016,03,11,13,29,13.50
2016,03,11,13,30,9.40
2016,03,11,13,31,7.10
2016,03,11,13,32,7.80
2016,03,11,13,33,8.00
2016,03,11,13,34,7.20
2016,03,11,13,35,6.10
2016,03,11,13,36,5.60
2016,03,11,13,37,7.40
2016,03,11,13,38,5.90
2016,03,11,13,39,5.50
2016,03,11,13,40,5.60
2016,03,11,13,41,4.50
2016,03,11,13,42,5.60
2016,03,11,13,43,6.80
2016,03,11,13,44,6.20
2016,03,11,13,45,10.10
2016,03,11,13,46,6.90
2016,03,11,13,47,4.80
2016,03,11,13,48,6.10
2016,03,11,13,49,5.60
2016,03,11,13,50,10.10
2016,03,11,13,51,8.90
2016,03,11,13,52,7.30
2016,03,11,13,53,7.40
2016,03,11,13,54,9.10
2016,03,11,13,55,7.80
2016,03,11,13,56,3.10
2016,03,11,13,57,5.90
2016,03,11,13,58,3.10
2016,03,11,13,59,4.30
2016,03,11,14,00,8.60
2016,03,11,14,01,7.90
2016,03,11,14,02,8.00
2016,03,11,14,03,9.20
2016,03,11,14,04,5.10
2016,03,11,14,05,7.30
2016,03,11,14,06,9.90
2016,03,11,14,07,9.70
2016,03,11,14,08,9.90
2016,03,11,14,09,8.00
2016,03,11,14,10,5.60
2016,03,11,14,11,5.60
2016,03,11,14,12,6.70
2016,03,11,14,13,7.40
2016,03,11,14,14,7.70
2016,03,11,14,15,4.60
2016,03,11,14,16,3.20
2016,03,11,14,17,3.70
2016,03,11,14,18,4.00
2016,03,11,14,19,5.40
2016,03,11,14,20,4.50
2016,03,11,14,21,4.50
2016,03,11,14,22,1.80
2016,03,11,14,23,4.20
2016,03,11,14,24,3.40
2016,03,11,14,25,5.90
2016,03,11,14,26,4.90
2016,03,11,14,27,5.80
2016,03,11,14,28,5.70
2016,03,11,14,29,7.20
2016,03,11,14,30,6.70
2016,03,11,14,31,6.70
2016,03,11,14,32,7.80
2016,03,11,14,33,4.50
2016,03,11,14,34,5.90
2016,03,11,14,35,9.00
2016,03,11,14,36,11.10
2016,03,11,14,37,6.50
2016,03,11,14,38,3.90
2016,03,11,14,39,6.60
2016,03,11,14,40,5.80
2016,03,11,14,41,4.00
2016,03,11,14,42,5.50
2016,03,11,14,43,5.10
2016,03,11,14,44,4.80
2016,03,11,14,45,4.10
2016,03,11,14,46,2.90
2016,03,11,14,47,3.70
2016,03,11,14,48,3.70
2016,03,11,14,49,4.90
2016,03,11,14,50,7.40
2016,03,11,14,51,6.10
2016,03,11,14,52,10.40
2016,03,11,14,53,5.30
2016,03,11,14,54,8.30
2016,03,11,14,55,7.50
2016,03,11,14,56,7.10
2016,03,11,14,57,6.40
2016,03,11,14,58,10.10
2016,03,11,14,59,8.50
2016,03,11,15,00,8.00
2016,03,11,15,01,6.60
2016,03,11,15,02,7.30
2016,03,11,15,03,6.70
2016,03,11,15,04,7.00
2016,03,11,15,05,7.50
2016,03,11,15,06,4.70
2016,03,11,15,07,4.70
2016,03,11,15,08,5.20
2016,03,11,15,09,5.00
2016,03,11,15,10,6.10
2016,03,11,15,11,6.30
2016,03,11,15,12,4.90
2016,03,11,15,13,3.10
2016,03,11,15,14,3.70
2016,03,11,15,15,3.70
2016,03,11,15,16,2.70
2016,03,11,15,17,4.20
2016,03,11,15,18,5.00
2016,03,11,15,19,4.70
2016,03,11,15,20,5.70
2016,03,11,15,21,8.50
2016,03,11,15,22,7.10
2016,03,11,15,23,7.20
2016,03,11,15,24,6.30
2016,03,11,15,25,7.50
2016,03,11,15,26,10.20
2016,03,11,15,27,7.20
2016,03,11,15,28,7.40
2016,03,11,15,29,7.10
2016,03,11,15,30,6.40
2016,03,11,15,31,6.20
2016,03,11,15,32,4.80
2016,03,11,15,33,4.40
2016,03,11,15,34,4.70
2016,03,11,15,35,3.90
2016,03,11,15,36,2.70
2016,03,11,15,37,3.80
2016,03,11,15,38,3.10
2016,03,11,15,39,3.50
2016,03,11,15,40,3.70
2016,03,11,15,41,6.00
2016,03,11,15,42,6.70
2016,03,11,15,43,5.30
2016,03,11,15,44,3.40
2016,03,11,15,45,4.90
2016,03,11,15,46,7.40
2016,03,11,15,47,7.00
2016,03,11,15,48,5.70
2016,03,11,15,49,3.70
2016,03,11,15,50,5.70
2016,03,11,15,51,3.10
2016,03,11,15,52,3.40
2016,03,11,15,53,5.40
2016,03,11,15,54,6.30
2016,03,11,15,55,5.10
2016,03,11,15,56,3.50
2016,03,11,15,57,2.90
2016,03,11,15,58,3.00
2016,03,11,15,59,5.20
2016,03,11,16,00,4.00
2016,03,11,16,01,4.80
2016,03,11,16,02,6.10
2016,03,11,16,03,6.00
2016,03,11,16,04,6.90
2016,03,11,16,05,4.80
2016,03,11,16,06,6.70
2016,03,11,16,07,3.80
2016,03,11,16,08,5.00
2016,03,11,16,09,4.00
2016,03,11,16,10,6.60
2016,03,11,16,11,7.20
2016,03,11,16,12,6.00
2016,03,11,16,13,6.50
2016,03,11,16,14,8.00
2016,03,11,16,15,5.70
2016,03,11,16,16,5.10
2016,03,11,16,17,5.00
2016,03,11,16,18,4.80
2016,03,11,16,19,7.30
2016,03,11,16,20,7.00
2016,03,11,16,21,7.00
2016,03,11,16,22,7.60
2016,03,11,16,23,7.00
2016,03,11,16,24,8.20
2016,03,11,16,25,5.60
2016,03,11,16,26,6.30
2016,03,11,16,27,7.40
2016,03,11,16,28,9.00
2016,03,11,16,29,11.30
2016,03,11,16,30,8.20
2016,03,11,16,31,6.00
2016,03,11,16,32,9.80
2016,03,11,16,33,8.20
2016,03,11,16,34,7.60
2016,03,11,16,35,5.20
2016,03,11,16,36,9.70
2016,03,11,16,37,8.20
2016,03,11,16,38,7.00
2016,03,11,16,39,7.80
2016,03,11,16,40,8.90
2016,03,11,16,41,9.20
2016,03,11,16,42,7.50
2016,03,11,16,43,4.30
2016,03,11,16,44,4.80
2016,03,11,16,45,8.00
2016,03,11,16,46,6.90
2016,03,11,16,47,5.10
2016,03,11,16,48,6.90
2016,03,11,16,49,7.20
2016,03,11,16,50,5.80
2016,03,11,16,51,3.40
2016,03,11,16,52,4.70
2016,03,11,16,53,4.40
2016,03,11,16,54,4.30
2016,03,11,16,55,3.90
2016,03,11,16,56,5.90
2016,03,11,16,57,5.40
2016,03,11,16,58,3.40
2016,03,11,16,59,3.00
2016,03,11,17,00,6.90
2016,03,11,17,01,3.90
2016,03,11,17,02,6.10
2016,03,11,17,03,5.50
2016,03,11,17,04,6.60
2016,03,11,17,05,6.00
2016,03,11,17,06,6.80
2016,03,11,17,07,6.40
2016,03,11,17,08,8.10
2016,03,11,17,09,9.50
2016,03,11,17,10,7.20
2016,03,11,17,11,7.00
2016,03,11,17,12,9.00
2016,03,11,17,13,7.60
2016,03,11,17,14,5.50
2016,03,11,17,15,5.70
2016,03,11,17,16,5.70
2016,03,11,17,17,6.30
2016,03,11,17,18,6.20
2016,03,11,17,19,6.90
2016,03,11,17,20,8.70
2016,03,11,17,21,5.90
2016,03,11,17,22,7.00
2016,03,11,17,23,6.70
2016,03,11,17,24,7.00
2016,03,11,17,25,7.80
2016,03,11,17,26,6.40
2016,03,11,17,27,7.80
2016,03,11,17,28,8.70
2016,03,11,17,29,7.70
2016,03,11,17,30,7.60
2016,03,11,17,31,8.20
2016,03,11,17,32,7.50
2016,03,11,17,33,7.00
2016,03,11,17,34,6.10
2016,03,11,17,35,6.10
2016,03,11,17,36,4.40
2016,03,11,17,37,6.60
2016,03,11,17,38,7.50
2016,03,11,17,39,6.20
2016,03,11,17,40,8.30
2016,03,11,17,41,6.40
2016,03,11,17,42,6.20
2016,03,11,17,43,6.10
2016,03,11,17,44,6.10
2016,03,11,17,45,7.00
2016,03,11,17,46,6.90
2016,03,11,17,47,8.90
2016,03,11,17,48,7.50
2016,03,11,17,49,7.40
2016,03,11,17,50,6.20
2016,03,11,17,51,5.80
2016,03,11,17,52,4.60
2016,03,11,17,53,3.90
2016,03,11,17,54,5.00
2016,03,11,17,55,8.80
2016,03,11,17,56,7.00
2016,03,11,17,57,6.70
2016,03,11,17,58,5.20
2016,03,11,17,59,8.20
2016,03,11,18,00,8.20
2016,03,11,18,01,8.70